Kapolei, HI

7:09 AM HST on December 10, 2016 (GMT -1000)
Kalaeloa (John Rodgers Field)

Weather History for PHJR - April, 2014

Change the Weather History Date:

Monday, April 7, 2014

  Actual Average (PHNL) Record (PHNL)
Temperature  
Mean Temperature 74 °F -  
Max Temperature 81 °F 82 °F 89 °F (1996)
Min Temperature 68 °F 67 °F 57 °F (1985)
Cooling Degree Days 10    
Growing Degree Days 24 (Base 50)    
Moisture  
Dew Point 60 °F    
Average Humidity 65    
Maximum Humidity 76    
Minimum Humidity 50    
Precipitation  
Precipitation 0.00 in - - ()
Sea Level Pressure  
Sea Level Pressure 30.10 in    
Wind  
Wind Speed 9 mph (NNE)    
Max Wind Speed 13 mph    
Max Gust Speed 28 mph    
Visibility 10 miles    
Events      
Averages and records for this station are not official NWS values.
T = Trace of Precipitation, MM = Missing Value Source: NWS Daily Summary

Daily Weather History Graph

Daily Weather History Graph

Search for Another Location

Airport or City:

Trip Planner

Search our weather history database for the weather conditions in past years. The results will help you decide how hot, cold, wet, or windy it might be!

Date:

Astronomy

Apr. 07, 2014 Rise Set
Actual Time 6:19 AM HST 6:49 PM HST
Civil Twilight 5:57 AM HST 7:11 PM HST
Nautical Twilight 5:31 AM HST 7:37 PM HST
Astronomical Twilight 5:04 AM HST 8:04 PM HST
Moon 12:44 PM HST (4/7) 1:14 AM HST (4/7)
Length of Visible Light 13h 14m
Length of Day
12h 29m
First Quarter, 55% of the Moon is Illuminated
Apr 7
First Quarter
Apr 14
Full
Apr 21
Last Quarter
Apr 28
New
May 6
First Quarter

Hourly Weather History & Observations

Time (HST) Temp. Heat Index Dew Point Humidity Pressure Visibility Wind Dir Wind Speed Gust Speed Precip Events Conditions
12:09 AM 71.6 °F - 62.6 °F 73% 30.10 in 10.0 mi Variable 6.9 mph - N/A   Scattered Clouds
12:53 AM 70.0 °F - 62.1 °F 76% 30.10 in 10.0 mi NNE 10.4 mph 17.3 mph N/A   Scattered Clouds
1:53 AM 70.0 °F - 62.1 °F 76% 30.10 in 10.0 mi NNE 8.1 mph 19.6 mph N/A   Clear
2:53 AM 70.0 °F - 62.1 °F 76% 30.08 in 10.0 mi North 11.5 mph 21.9 mph N/A   Overcast
3:53 AM 70.0 °F - 61.0 °F 73% 30.08 in 10.0 mi NNE 10.4 mph 17.3 mph N/A   Overcast
4:53 AM 70.0 °F - 62.1 °F 76% 30.07 in 10.0 mi North 11.5 mph 23.0 mph N/A   Mostly Cloudy
5:53 AM 69.1 °F - 61.0 °F 75% 30.09 in 10.0 mi NNE 10.4 mph 21.9 mph N/A   Overcast
6:53 AM 70.0 °F - 61.0 °F 73% 30.11 in 10.0 mi NNE 10.4 mph 26.5 mph N/A   Overcast
7:51 AM 71.6 °F - 60.8 °F 69% 30.10 in 10.0 mi NNE 11.5 mph 24.2 mph N/A   Partly Cloudy
7:53 AM 72.0 °F - 61.0 °F 68% 30.12 in 10.0 mi NNE 11.5 mph 24.2 mph N/A   Partly Cloudy
8:53 AM 73.9 °F - 60.1 °F 62% 30.14 in 10.0 mi NNE 11.5 mph 24.2 mph N/A   Clear
9:53 AM 75.9 °F - 60.1 °F 58% 30.14 in 10.0 mi NNE 11.5 mph 26.5 mph N/A   Partly Cloudy
10:53 AM 79.0 °F - 60.1 °F 52% 30.14 in 10.0 mi ENE 9.2 mph 21.9 mph N/A   Clear
11:53 AM 80.1 °F 81.1 °F 61.0 °F 52% 30.12 in 10.0 mi NE 8.1 mph 20.7 mph N/A   Scattered Clouds
12:53 PM 81.0 °F 81.7 °F 61.0 °F 50% 30.10 in 10.0 mi NE 10.4 mph 27.6 mph N/A   Scattered Clouds
1:53 PM 78.1 °F - 60.1 °F 54% 30.08 in 10.0 mi NE 10.4 mph 21.9 mph N/A   Mostly Cloudy
2:53 PM 77.0 °F - 59.0 °F 54% 30.06 in 10.0 mi NE 9.2 mph 23.0 mph N/A   Mostly Cloudy
3:53 PM 75.0 °F - 57.9 °F 55% 30.05 in 10.0 mi NE 10.4 mph 21.9 mph N/A   Mostly Cloudy
4:53 PM 75.9 °F - 57.9 °F 54% 30.05 in 10.0 mi NE 10.4 mph 24.2 mph N/A   Clear
5:53 PM 73.0 °F - 57.9 °F 59% 30.06 in 10.0 mi NE 12.7 mph 23.0 mph N/A   Partly Cloudy
6:53 PM 70.0 °F - 57.9 °F 65% 30.07 in 10.0 mi NNE 8.1 mph 23.0 mph N/A   Clear
7:17 PM 69.8 °F - 57.2 °F 64% 30.06 in 10.0 mi NE 9.2 mph 19.6 mph N/A   Partly Cloudy
7:53 PM 70.0 °F - 57.9 °F 65% 30.09 in 10.0 mi Variable 6.9 mph 23.0 mph N/A   Clear
8:34 PM 69.8 °F - 57.2 °F 64% 30.09 in 10.0 mi NE 8.1 mph 21.9 mph N/A   Partly Cloudy
8:53 PM 69.1 °F - 57.0 °F 65% 30.11 in 10.0 mi NNE 9.2 mph 21.9 mph N/A   Clear
9:53 PM 68.0 °F - 57.0 °F 68% 30.12 in 10.0 mi Variable 6.9 mph - N/A   Clear
10:53 PM 68.0 °F - 55.9 °F 65% 30.12 in 10.0 mi Variable 6.9 mph 18.4 mph N/A   Clear
11:53 PM 68.0 °F - 57.0 °F 68% 30.12 in 10.0 mi Variable 6.9 mph - N/A   Partly Cloudy